Weather in Terentyevskaya

Russia / Kemerovo Oblast     54°03′58″N   86°52′10″E
temp.,
°C
wind,
m/s
gust,
m/s
humid.,
%
clouds,
%
prec.,
mm/h
press.,
hPa
HPBL,
m
8 may, sat
sat801:00+9wsw485520 0.0 1017118
04:00+7wsw49663 0.0 1018166
07:00+8w38660 0.0 1019239
10:00+13wnw46410 0.0 10191444
13:00+16w58313 0.0 10171997
16:00+18wnw7103571 0.0 10162493
19:00+15w5114884 0.0 1017718
22:00+14w5125251 0.0 1016458
9 may, sun
sun901:00+12w496298 0.1 1016186
04:00+10w398190 1.3 1016235
07:00+10nnw488069 1.8 1017529
10:00+10nnw56571 0.0 1018919
13:00+12nnw57465 0.0 10181494
16:00+13n67385 0.0 10181696
19:00+11ne674344 0.0 10181572
22:00+7nne39550 0.0 1020320
10 may, mon
mon1001:00+5nne410640 0.0 1020296
04:00+3nne37730 0.0 1020164
07:00+4ne24691 0.0 1020161
10:00+9ene564910 0.0 1019976
13:00+13ene56350 0.0 10171566
16:00+16ene57295 0.0 10142097
19:00+15ne67374 0.0 10131371
22:00+9ene5105228 0.0 1015265
11 may, tue
tue1101:00+6ne376413 0.0 1014145
04:00+5nne226986 0.0 101339
07:00+6nne136685 0.0 1013112
10:00+11ne3349100 0.0 1012617
13:00+14ene3338100 0.0 10111352
16:00+16ne2235100 0.0 10101763
19:00+15ssw3446100 0.0 1011146
22:00+11sw4772100 0.0 1012240
12 may, wed
wed1201:00+9sw1380100 0.4 1013126
04:00+9ne1488100 1.5 1012259
07:00+9ene2489100 4.1 1013203
10:00+10ne1279100 1.6 1013539
13:00+9sse3384100 2.7 1014367
16:00+13ese245898 0.4 10141092
19:00+12sse2265100 0.5 1014425
22:00+9w227497 0.3 101516